sat.trackr.live / text

‹ back to catalog

STARLINK-35428

NORAD 66115 · 2025-237B

PAYLOAD ACTIVE UNKNOWN

§ Identity

Operator
Country
US
Launch date
2025-10-22
Launch site
AFWTR
Launch vehicle
Mass (kg)
RCS (m²)

Purposes: comms

External: N2YO · Heavens-Above · Gunter

§ Orbital elements

Epoch: 2026-05-25T03:25:29.400096Z

Period
94.11 min
Inclination
53.1588°
Eccentricity
0.0001049
Mean motion
15.30191958 rev/d
Perigee alt
474.5 km
Apogee alt
476.0 km
Semi-major
6,853.4 km
B*
6.4091e-4
RAAN
44.6651°
Arg perigee
85.7683°
Mean anomaly
274.3438°
Rev number
3,430

§ Raw data

STARLINK-354281 66115U 25237B   26145.14270139  .00018666  00000+0  64091-3 0  99922 66115  53.1588  44.6651 0001049  85.7683 274.3438 15.30191958 34301

JSON: /api/v1/satellites/66115 · /tle

For live sub-satellite position, see the globe view (requires WebGL).

§ Visibility from observer

Set your observer location to see the next 7 days of passes ≥ 10°. The values pass through the URL so the page stays shareable.

No JS? Fill the form by hand. The geolocation button needs JavaScript.